星链-36650(STARLINK-36650)

导读

STARLINK-36650是美国于2026年2月16日发射的星链系列卫星,星链是美国太空探索技术公司(SpaceX)打造的低轨卫星互联网星座项目,旨在为全球提供高速互联网接入服务。该卫星进一步扩充了星链星座的在轨卫星规模,助力提升星座的全球覆盖密度与网络服务能力。

Basic Information
目录编号:
67836
目录名称:
STARLINK-36650
国际标识:
2026-033R
轨道中心:
EARTH
卫星名称:
星链-36650
卫星全名:
星链-36650(STARLINK-36650)
卫星状态:
在轨 (已飞行209 天)
发射日期:
2026-02-16 UTC
国别 :
美国 (US)
星等 :
--
This satellite is enrolled in the Space Conjunction Data Service (SCDS) and the current flight risk assessment level is: High Risk
Orbit Information
数据来源 国际轨道数据
星历时间: 2026-09-12T18:39:53+0800
22小时前
查看轨道信息
半长轴: 6861.154km
偏心率: 0.0001542
轨道倾角: 42.997°
近地点辐角 269.573°
升交点赤经 292.545°
平近点角 90.495°
近地点: 481.959km
远地点: 484.075km
周期: 94.266分钟
每日圈数: 15.275909
Detailed Information
固有亮度:
5
最大亮度:
2.5
卫星平台:
Starlink V1.0
覆盖范围:
全球
运营商:
太空探索技术公司
运营商所在国:
美国
制造商(研发单位):
太空探索技术公司
制造商所在国:
美国
使用方式:
暂无
Satellite Introduction
Starlink 计划是 SpaceX 推出的全球卫星互联网项目,通过发射低轨道卫星,为全球尤其是偏远地区提供高速、低延迟的互联网服务。自 2019 年起,Starlink 已部署数千颗卫星,旨在缩小全球数字鸿沟,推动互联网普及。该项目还为军事、航空等行业提供通信支持,带来广泛经济效益。
2D Orbit Map
3D Orbit Map
Orbit Altitude Analysis Chart
Orbit Inclination Analysis Chart
Orbit Comprehensive Analysis Chart
View Comprehensive Chart
Conjunction Data List
Event ID Objects TCA Miss Dist (km) Collision Risk Probability Collision Risk Index (CRI) Action
CDM_260915-192105-601506-783621
2026-09-15T
19:21:28+0000
0.476 km
远距离
1.789706E-4 高风险 0.8
CDM_260915-014305-979906-783621
2026-09-15T
01:43:44+0000
0.710 km
远距离
3.995755E-5 中风险 0.67
CDM_260914-135705-979906-783621
2026-09-14T
13:57:34+0000
0.739 km
远距离
3.509156E-5 中风险 0.66
CDM_260915-000905-979906-783621
2026-09-15T
00:09:34+0000
1.127 km
极远距离
8.464106E-6 低风险 0.54
CDM_260914-153105-979906-783621
2026-09-14T
15:31:44+0000
1.133 km
极远距离
8.298688E-6 低风险 0.53
CDM_260914-175705-936306-783621
2026-09-14T
17:57:23+0000
0.970 km
远距离
6.1314E-6 低风险 0.51
CDM_260914-082406-729206-783623
2026-09-14T
08:24:19+0000
1.395 km
极远距离
5.952656E-6 低风险 0.5
CDM_260915-205505-601506-783621
2026-09-15T
20:55:37+0000
1.582 km
极远距离
4.260955E-6 低风险 0.48
CDM_260914-153605-936306-783621
2026-09-14T
15:36:09+0000
1.186 km
极远距离
3.116864E-6 低风险 0.45
CDM_260914-140205-936306-783621
2026-09-14T
14:02:00+0000
1.297 km
极远距离
2.338518E-6 低风险 0.42
Miss Distance Evolution Trend with All Objects
Collision Probability Evolution Trend with All Objects